Torrington, WY

4:48 AM MDT on August 26, 2016 (GMT -0600)
Torrington Municipal

Weather History for KTOR - April, 2014

Change the Weather History Date:

Thursday, April 10, 2014

  Actual Average Record
Temperature  
Mean Temperature 51 °F 45 °F  
Max Temperature 65 °F 59 °F 79 °F (2006)
Min Temperature 37 °F 31 °F 9 °F (2013)
Degree Days  
Heating Degree Days 14 20  
Month to date heating degree days 206 215  
Since 1 July heating degree days 6172 5899  
Cooling Degree Days 0 0  
Month to date cooling degree days 0 0  
Year to date cooling degree days 0 0  
Growing Degree Days 2 (Base 50)    
Moisture  
Dew Point 37 °F    
Average Humidity 60    
Maximum Humidity 89    
Minimum Humidity 31    
Precipitation  
Precipitation 0.04 in 0.06 in 0.38 in (2001)
Month to date precipitation 0.08 0.40  
Year to date precipitation 1.68 1.75  
Sea Level Pressure  
Sea Level Pressure 29.95 in    
Wind  
Wind Speed 8 mph (East)    
Max Wind Speed 20 mph    
Max Gust Speed 24 mph    
Visibility 10 miles    
Events Rain    
T = Trace of Precipitation, MM = Missing Value Source: NWS Daily Summary

Daily Weather History Graph

Daily Weather History Graph

Search for Another Location

Airport or City:

Trip Planner

Search our weather history database for the weather conditions in past years. The results will help you decide how hot, cold, wet, or windy it might be!

Date:

Astronomy

Apr. 10, 2014 Rise Set
Actual Time 6:24 AM MDT 7:32 PM MDT
Civil Twilight 5:55 AM MDT 8:01 PM MDT
Nautical Twilight 5:21 AM MDT 8:35 PM MDT
Astronomical Twilight 4:45 AM MDT 9:11 PM MDT
Moon 3:14 PM MDT (4/10) 3:52 AM MDT (4/10)
Length of Visible Light 14h 05m
Length of Day
13h 08m
Waxing Gibbous, 80% of the Moon is Illuminated
Apr 10
Waxing Gibbous
Apr 15
Full
Apr 22
Last Quarter
Apr 29
New
May 6
First Quarter

Hourly Weather History & Observations

Time (MDT) Temp. Windchill Dew Point Humidity Pressure Visibility Wind Dir Wind Speed Gust Speed Precip Events Conditions
12:53 AM 46.9 °F - 36.0 °F 66% 29.87 in 10.0 mi WNW 4.6 mph - N/A   Clear
1:53 AM 45.0 °F 42.6 °F 36.0 °F 71% 29.88 in 10.0 mi NNW 4.6 mph - N/A   Overcast
2:53 AM 42.1 °F 38.4 °F 35.1 °F 76% 29.88 in 10.0 mi NE 5.8 mph - N/A   Overcast
3:53 AM 39.9 °F 34.5 °F 35.1 °F 83% 29.90 in 10.0 mi ENE 8.1 mph - N/A   Clear
4:53 AM 42.1 °F 35.7 °F 32.0 °F 67% 29.88 in 10.0 mi ENE 11.5 mph - N/A   Scattered Clouds
5:53 AM 42.1 °F 37.1 °F 33.1 °F 70% 29.96 in 10.0 mi NE 8.1 mph - N/A   Overcast
6:53 AM 39.9 °F 33.9 °F 37.0 °F 89% 30.00 in 10.0 mi NE 9.2 mph - 0.03 in Rain Light Rain
7:00 AM 39.9 °F 34.5 °F 37.0 °F 89% 30.05 in 9.0 mi ENE 8.1 mph - 0.00 in Rain Light Rain
7:10 AM 39.9 °F 34.5 °F 37.9 °F 93% 30.05 in 10.0 mi ENE 8.1 mph - 0.00 in   Overcast
8:49 AM 41.0 °F 38.0 °F 39.2 °F 93% 30.06 in 10.0 mi SSE 4.6 mph - N/A   Overcast
8:53 AM 41.0 °F 38.0 °F 37.9 °F 89% 30.02 in 10.0 mi SSE 4.6 mph - N/A   Overcast
9:20 AM 42.1 °F 38.4 °F 37.9 °F 85% 30.06 in 10.0 mi SE 5.8 mph - N/A   Overcast
9:49 AM 42.8 °F 39.3 °F 37.4 °F 81% 30.05 in 10.0 mi SSE 5.8 mph - N/A   Overcast
9:53 AM 43.0 °F 39.5 °F 39.0 °F 86% 30.01 in 10.0 mi SE 5.8 mph - N/A   Overcast
10:53 AM 48.0 °F - 39.0 °F 71% 30.01 in 10.0 mi South 4.6 mph - N/A   Scattered Clouds
11:53 AM 54.0 °F - 37.9 °F 55% 29.95 in 10.0 mi SE 9.2 mph 16.1 mph N/A   Scattered Clouds
12:53 PM 57.0 °F - 37.9 °F 49% 29.91 in 10.0 mi South 15.0 mph 20.7 mph N/A   Clear
1:53 PM 57.9 °F - 37.9 °F 47% 29.89 in 10.0 mi South 9.2 mph - N/A   Clear
2:53 PM 61.0 °F - 37.9 °F 42% 29.87 in 10.0 mi South 15.0 mph - N/A   Clear
3:53 PM 63.0 °F - 37.0 °F 38% 29.85 in 10.0 mi SE 9.2 mph - N/A   Clear
4:53 PM 64.9 °F - 35.1 °F 33% 29.82 in 10.0 mi North - - N/A   Clear
5:53 PM 64.0 °F - 33.1 °F 31% 29.84 in 10.0 mi North 6.9 mph - N/A   Clear
6:53 PM 57.9 °F - 35.1 °F 42% 29.87 in 10.0 mi NNE 10.4 mph - N/A   Clear
7:53 PM 51.1 °F - 39.0 °F 63% 29.91 in 10.0 mi NE 18.4 mph - N/A   Clear
8:53 PM 46.9 °F - 39.0 °F 74% 29.96 in 10.0 mi NE 13.8 mph - N/A   Clear
9:53 PM 45.0 °F 43.5 °F 39.0 °F 80% 29.99 in 10.0 mi Variable 3.5 mph - N/A   Clear
10:53 PM 44.1 °F - 39.0 °F 82% 29.99 in 10.0 mi Calm Calm - N/A   Clear
11:53 PM 41.0 °F 39.0 °F 37.9 °F 89% 29.99 in 10.0 mi West 3.5 mph - N/A   Clear